Flag for Italy Weather past 2 weeks in Cagliari, Italy

Now
77 °F

Passing clouds.


Feels Like: 79 °F
Forecast: 66 / 75 °F
Wind: 7 mph from Southeast

Location: Cagliari / Elmas

Current Time: Oct 2, 2014 at 7:38:40 PM

Latest Report: Oct 2, 2014 at 6:50 PM


Visibility: N/A

Pressure: 30.09 "Hg

Humidity: 74%

Dew point: 68 °F

Location of CagliariLocation

Historic Weather in Cagliari — Graph

°F

Cagliari temperature yesterday

Maximum temperature yesterday: 81 °F (at 11:50 AM)
Minimum temperature yesterday: 68 °F (at 7:20 AM)
Average temperature yesterday: 75 °F

Past Weeks' High & Low Weather Summary

 TemperatureHumidityPressure
High95 °F (Sep 21, 2:50 PM)100% (Sep 20, 2:50 AM)30.30 "Hg (Sep 20, 2:50 AM)
Low57 °F (Sep 26, 7:50 AM)30% (Sep 21, 4:50 PM)29.80 "Hg (Sep 18, 5:20 AM)
Average75 °F76%30.06 "Hg
* Reported Sep 17 6:20 PM — Oct 2 6:20 PM, Cagliari, Weather by CustomWeather, © 2014

Note: Actual official high and low records may vary slightly from our data, if they occured in-between our weather recording intervals... More about our weather records

Advertising

Cagliari weather history for previous 24 hours

 ConditionsComfort  
Time TempWeatherWind HumidityBarometerVisibility
6:20 PM
Oct 2
77 °FPassing clouds.8 mph69%30.09 "HgN/A
5:50 PM77 °FPassing clouds.10 mph74%30.09 "HgN/A
5:20 PM79 °FPassing clouds.10 mph65%30.09 "HgN/A
4:50 PM81 °FPassing clouds.13 mph62%30.09 "HgN/A
4:20 PM81 °FPassing clouds.13 mph62%30.09 "HgN/A
3:50 PM81 °FPassing clouds.13 mph70%30.09 "HgN/A
3:20 PM81 °FPassing clouds.13 mph58%30.09 "HgN/A
2:50 PM81 °FPassing clouds.12 mph58%30.09 "HgN/A
2:20 PM82 °FPassing clouds.12 mph55%30.12 "HgN/A
1:50 PM81 °FPassing clouds.12 mph58%30.12 "HgN/A
1:20 PM84 °FPassing clouds.3 mph45%30.12 "HgN/A
12:50 PM82 °FPassing clouds.2 mph48%30.15 "HgN/A
12:20 PM81 °FPassing clouds.5 mph54%30.15 "HgN/A
11:50 AM79 °FPassing clouds.6 mph58%30.15 "HgN/A
11:20 AM77 °FPassing clouds.7 mph65%30.15 "HgN/A
10:50 AM75 °FPassing clouds.7 mph74%30.15 "HgN/A
10:20 AM75 °FPassing clouds.7 mph74%30.15 "HgN/A
9:50 AM73 °FPassing clouds.8 mph78%30.15 "HgN/A
9:20 AM72 °FPassing clouds.8 mph83%30.15 "HgN/A
8:50 AM72 °FLight rain. Scattered clouds.5 mph83%30.15 "HgN/A
8:20 AM72 °FPassing clouds.7 mph88%30.15 "HgN/A
7:50 AM70 °FPassing clouds.6 mph88%30.15 "HgN/A
7:20 AM70 °FPassing clouds.6 mph88%30.15 "HgN/A
6:50 AM72 °FPassing clouds.7 mph83%30.12 "HgN/A
6:20 AM72 °FPassing clouds.7 mph88%30.12 "HgN/A
5:50 AM72 °FPassing clouds.8 mph88%30.12 "HgN/A
5:20 AM72 °FPassing clouds.9 mph88%30.12 "HgN/A
4:50 AM72 °FPassing clouds.9 mph88%30.12 "HgN/A
4:20 AM72 °FPassing clouds.7 mph88%30.12 "HgN/A
3:50 AM72 °FPassing clouds.7 mph88%30.15 "HgN/A
3:20 AM72 °FPassing clouds.8 mph88%30.15 "HgN/A
2:50 AM72 °FLight rain. Passing clouds.12 mph88%30.15 "HgN/A
2:20 AM72 °FClear.9 mph88%30.15 "Hg10 mi
1:50 AM72 °FClear.10 mph88%30.15 "Hg10 mi
1:20 AM72 °FClear.12 mph88%30.15 "Hg10 mi
12:50 AM72 °FClear.9 mph88%30.15 "Hg10 mi
12:20 AM72 °FClear.8 mph94%30.18 "Hg10 mi
11:50 PM
Oct 1
72 °FClear.9 mph94%30.18 "Hg10 mi
11:20 PM72 °FClear.9 mph94%30.18 "Hg10 mi
10:50 PM72 °FClear.10 mph94%30.18 "Hg10 mi
10:20 PM73 °FClear.13 mph83%30.15 "Hg10 mi
9:50 PM73 °FClear.10 mph83%30.15 "Hg10 mi
9:20 PM75 °FClear.9 mph78%30.15 "Hg10 mi
8:50 PM75 °FClear.9 mph78%30.15 "Hg10 mi
8:20 PM75 °FPassing clouds.8 mph78%30.15 "HgN/A
7:50 PM77 °FPassing clouds.7 mph79%30.15 "HgN/A
7:20 PM77 °FPassing clouds.2 mph89%30.15 "HgN/A
Weather by CustomWeather, © 2014

See weather overviewHow to use our weather pages